STARLINK-36865

Last updated on Wed Mar 25 2026 00:02:05 GMT+0000 (Coordinated Universal Time)

1 67930U 26036AC 26083.50002314 -.01859302 00000+0 -57807-1 0 9993 2 67930 42.9992 161.4430 0001204 298.7839 256.7917 15.36030027 6026
UTC large
Height (km)
Speed (km/s)
/
Latitude / Longitude
Inclination (degrees)
Orbital Period (minutes)
Azimuth
Elevation
Range (km)
Doppler Factor

Next 0 passes for location: London (51.5072 / 0.1276)

Sorry there are no passes over London.